Phnom Penh, Cambodia

5:47 PM +07 on May 28, 2017 (GMT +0700)
Pochentong International

Weather History for VDPP - July, 2013

Change the Weather History Date:

Thursday, July 4, 2013

  Actual Average Record
Temperature  
Mean Temperature 84 °F -  
Max Temperature 91 °F 88 °F 98 °F (2014)
Min Temperature 77 °F 77 °F 75 °F (2001)
Cooling Degree Days 19    
Growing Degree Days 34 (Base 50)    
Moisture  
Dew Point 75 °F    
Average Humidity 73    
Maximum Humidity 92    
Minimum Humidity 52    
Precipitation  
Precipitation 0.00 in - - ()
Sea Level Pressure  
Sea Level Pressure 29.68 in    
Wind  
Wind Speed 4 mph ()    
Max Wind Speed 12 mph    
Max Gust Speed -    
Visibility 5.9 miles    
Events Rain    
Averages and records for this station are not official NWS values.
T = Trace of Precipitation, MM = Missing Value Source: Averaged Metar Reports

Daily Weather History Graph

Daily Weather History Graph

Search for Another Location

Airport or City:

Trip Planner

Search our weather history database for the weather conditions in past years. The results will help you decide how hot, cold, wet, or windy it might be!

Date:

Astronomy

Jul. 04, 2013 Rise Set
Actual Time 5:41 AM +07 6:28 PM +07
Civil Twilight 5:18 AM +07 6:51 PM +07
Nautical Twilight 4:51 AM +07 7:18 PM +07
Astronomical Twilight 4:23 AM +07 7:46 PM +07
Moon 2:21 AM +07 (7/4) 3:16 PM +07 (7/4)
Length of Visible Light 13h 33m
Length of Day
12h 47m
Waning Crescent, 14% of the Moon is Illuminated
Jul 4
Waning Crescent
Jul 8
New
Jul 16
First Quarter
Jul 23
Full
Jul 30
Last Quarter

Hourly Weather History & Observations

Time (+07) Temp. Heat Index Dew Point Humidity Pressure Visibility Wind Dir Wind Speed Gust Speed Precip Events Conditions
12:00 AM 82.4 °F 90.9 °F 77.0 °F 84% 29.71 in 5.6 mi SE 4.6 mph - N/A   Scattered Clouds
12:30 AM 80.6 °F 87.1 °F 77.0 °F 89% 29.71 in 5.6 mi SSE 4.6 mph - N/A   Scattered Clouds
1:00 AM 80.6 °F 87.1 °F 77.0 °F 89% 29.71 in 5.6 mi SSE 4.6 mph - N/A   Scattered Clouds
6:00 AM 80.6 °F 87.1 °F 77.0 °F 89% 29.68 in 5.6 mi Calm Calm - N/A   Scattered Clouds
6:30 AM 80.6 °F 87.1 °F 77.0 °F 89% 29.68 in 5.6 mi SE 3.5 mph - N/A   Scattered Clouds
7:00 AM 81 °F - 79 °F 92% 29.75 in 3 mi Calm Calm - -   Mist
7:00 AM 82.4 °F 90.9 °F 77.0 °F 84% 29.68 in 5.6 mi SSE 4.6 mph - N/A   Scattered Clouds
7:30 AM 82.4 °F 90.9 °F 77.0 °F 84% 29.68 in 6.2 mi SSE 5.8 mph - N/A   Scattered Clouds
8:00 AM 84.2 °F 94.1 °F 77.0 °F 79% 29.71 in 6.2 mi SE 6.9 mph - N/A   Partly Cloudy
8:30 AM 84.2 °F 94.1 °F 77.0 °F 79% 29.71 in 6.2 mi SE 5.8 mph - N/A   Partly Cloudy
9:00 AM 86.0 °F 96.9 °F 77.0 °F 74% 29.71 in 6.2 mi SSE 4.6 mph - N/A   Partly Cloudy
9:30 AM 86.0 °F 95.1 °F 75.2 °F 70% 29.71 in 6.2 mi South 5.8 mph - N/A   Scattered Clouds
10:00 AM 87.8 °F 97.6 °F 75.2 °F 66% 29.71 in 6.2 mi ESE 3.5 mph - N/A   Scattered Clouds
10:30 AM 89.6 °F 99.8 °F 75.2 °F 62% 29.71 in 6.2 mi SSW 3.5 mph - N/A   Partly Cloudy
11:00 AM 89.6 °F 99.8 °F 75.2 °F 62% 29.71 in 6.2 mi SW 3.5 mph - N/A   Partly Cloudy
11:30 AM 91.4 °F 102.5 °F 75.2 °F 59% 29.68 in 6.2 mi South 3.5 mph - N/A   Partly Cloudy
12:00 PM 91.4 °F 98.4 °F 71.6 °F 52% 29.68 in 6.2 mi South 3.5 mph - N/A   Partly Cloudy
12:30 PM 91.4 °F 100.1 °F 73.4 °F 55% 29.65 in 6.2 mi North 2.3 mph - N/A   Partly Cloudy
1:00 PM 91.4 °F 100.1 °F 73.4 °F 55% 29.65 in 6.2 mi NNE 4.6 mph - N/A   Partly Cloudy
1:30 PM 91.4 °F 100.1 °F 73.4 °F 55% 29.65 in 6.2 mi North 4.6 mph - N/A   Partly Cloudy
2:00 PM 91.4 °F 100.1 °F 73.4 °F 55% 29.62 in 6.2 mi East 2.3 mph - N/A   Partly Cloudy
2:30 PM 87.8 °F 95.6 °F 73.4 °F 62% 29.62 in 6.2 mi East 9.2 mph - N/A   Partly Cloudy
3:00 PM 86.0 °F 95.1 °F 75.2 °F 70% 29.59 in 5.6 mi SW 10.4 mph - N/A Rain Light Rain
3:30 PM 84.2 °F 92.3 °F 75.2 °F 74% 29.62 in 6.2 mi WNW 6.9 mph - N/A   Scattered Clouds
4:00 PM 84.2 °F 90.9 °F 73.4 °F 70% 29.62 in 6.2 mi NNW 4.6 mph - N/A   Scattered Clouds
4:30 PM 84.2 °F 90.9 °F 73.4 °F 70% 29.62 in 6.2 mi SSW 8.1 mph - N/A   Scattered Clouds
5:00 PM 84.2 °F 90.9 °F 73.4 °F 70% 29.62 in 6.2 mi SW 11.5 mph - N/A   Scattered Clouds
5:30 PM 84.2 °F 89.6 °F 71.6 °F 66% 29.65 in 6.2 mi WSW 8.1 mph - N/A   Scattered Clouds
6:00 PM 84.2 °F 90.9 °F 73.4 °F 70% 29.65 in 6.2 mi West 8.1 mph - N/A   Scattered Clouds
6:30 PM 82.4 °F 88.2 °F 73.4 °F 74% 29.65 in 6.2 mi WSW 9.2 mph - N/A   Scattered Clouds
7:00 PM 82.4 °F 88.2 °F 73.4 °F 74% 29.65 in 6.2 mi West 6.9 mph - N/A   Scattered Clouds
7:30 PM 82.4 °F 88.2 °F 73.4 °F 74% 29.68 in 5.6 mi West 6.9 mph - N/A   Scattered Clouds
8:00 PM 82.4 °F 89.5 °F 75.2 °F 79% 29.71 in 5.6 mi West 5.8 mph - N/A   Scattered Clouds
8:30 PM 82.4 °F 89.5 °F 75.2 °F 79% 29.71 in 6.2 mi West 5.8 mph - N/A   Scattered Clouds
9:00 PM 82.4 °F 88.2 °F 73.4 °F 74% 29.71 in 6.2 mi WSW 5.8 mph - N/A   Scattered Clouds
9:30 PM 82.4 °F 88.2 °F 73.4 °F 74% 29.71 in 5.6 mi West 5.8 mph - N/A   Partly Cloudy
10:00 PM 82.4 °F 89.5 °F 75.2 °F 79% 29.71 in 5.6 mi West 5.8 mph - N/A   Partly Cloudy
10:30 PM 82.4 °F 88.2 °F 73.4 °F 74% 29.71 in 5.6 mi WSW 5.8 mph - N/A   Partly Cloudy
11:00 PM 82.4 °F 88.2 °F 73.4 °F 74% 29.71 in 5.6 mi WNW 3.5 mph - N/A   Partly Cloudy
11:30 PM 82.4 °F 88.2 °F 73.4 °F 74% 29.71 in 5.6 mi SW 3.5 mph - N/A   Partly Cloudy